Retour au catalogue

STARLINK-30990

ActifCommunicationsVLEO
NORAD 58478·PAYLOAD·🇺🇸 United States

Lancé Dec 3, 2023 depuis Cape Canaveral Space Force Station

Loading…

Prochains Passages (prochaines 24 heures)

TLE

FraisSource: CelesTrak SupGP

Époque: Sep 15, 2026, 02:48 UTC

1 58478C 23186F   26258.11715278 -.00033563  00000+0 -12153-2 0  2580
2 58478  43.0021  77.3571 0001802 267.9174 164.7221 15.27603829    18

Suivez STARLINK-30990 en temps réel avec AllMySat

Download on the App Store